Meriden, CT

1:38 AM EST on January 24, 2018 (GMT -0500)
Meriden Markham Municipal

Weather History for KMMK - December, 2012

Change the Weather History Date:

Saturday, December 22, 2012

  Actual Average (KOXC) Record (KOXC)
Temperature  
Mean Temperature 36 °F -  
Max Temperature 37 °F 35 °F 62 °F (2013)
Min Temperature 35 °F 22 °F - (2005)
Degree Days  
Heating Degree Days 29    
Moisture  
Dew Point 23 °F    
Average Humidity 59    
Maximum Humidity 76    
Minimum Humidity 39    
Precipitation  
Precipitation 0.00 in - - ()
Sea Level Pressure  
Sea Level Pressure 29.50 in    
Wind  
Wind Speed 10 mph (WNW)    
Max Wind Speed 23 mph    
Max Gust Speed 32 mph    
Visibility 10 miles    
Events      
Averages and records for this station are not official NWS values.
T = Trace of Precipitation, MM = Missing Value Source: NWS Daily Summary

Daily Weather History Graph

Daily Weather History Graph

Search for Another Location

Airport or City:

Trip Planner

Search our weather history database for the weather conditions in past years. The results will help you decide how hot, cold, wet, or windy it might be!

Date:

Astronomy

Dec. 22, 2012 Rise Set
Actual Time 7:15 AM EST 4:25 PM EST
Civil Twilight 6:43 AM EST 4:56 PM EST
Nautical Twilight 6:08 AM EST 5:31 PM EST
Astronomical Twilight 5:34 AM EST 6:05 PM EST
Moon 12:43 PM EST (12/22) 1:55 AM EST (12/22)
Length of Visible Light 10h 13m
Length of Day
9h 10m
Waxing Gibbous, 73% of the Moon is Illuminated
Dec 22
Waxing Gibbous
Dec 28
Full
Jan 4
Last Quarter
Jan 11
New
Jan 18
First Quarter

Hourly Weather History & Observations

Time (EST) Temp. Windchill Dew Point Humidity Pressure Visibility Wind Dir Wind Speed Gust Speed Precip Events Conditions
12:53 AM 37.9 °F 32.1 °F 27.0 °F 65% 29.29 in 10.0 mi SSW 8.1 mph - N/A   Overcast
1:53 AM 37.9 °F 32.7 °F 27.0 °F 65% 29.29 in 10.0 mi SSW 6.9 mph - N/A   Overcast
2:53 AM 37.0 °F 31.6 °F 28.0 °F 70% 29.29 in 10.0 mi SSW 6.9 mph - N/A   Overcast
4:53 AM 37.0 °F 31.6 °F 30.0 °F 76% 29.31 in 10.0 mi Variable 6.9 mph - N/A   Overcast
5:25 AM 37.4 °F 31.4 °F 30.2 °F 75% 29.32 in 10.0 mi WSW 8.1 mph - N/A   Overcast
5:53 AM 37.0 °F 32.4 °F 30.0 °F 76% 29.33 in 10.0 mi Variable 5.8 mph - N/A   Overcast
7:13 AM 37.4 °F 30.8 °F 28.4 °F 70% 29.38 in 10.0 mi West 9.2 mph 17.3 mph N/A   Overcast
7:53 AM 35.1 °F 26.9 °F 28.0 °F 76% 29.42 in 10.0 mi WNW 11.5 mph - N/A   Overcast
8:26 AM 35.6 °F 26.6 °F 26.6 °F 70% 29.43 in 10.0 mi WNW 13.8 mph 19.6 mph 0.00 in   Overcast
8:34 AM 35.6 °F 27.5 °F 26.6 °F 70% 29.44 in 10.0 mi WNW 11.5 mph 19.6 mph 0.00 in   Overcast
8:41 AM 35.6 °F 27.1 °F 26.6 °F 70% 29.44 in 10.0 mi WNW 12.7 mph 23.0 mph 0.00 in   Overcast
8:53 AM 35.1 °F 27.4 °F 25.0 °F 67% 29.46 in 10.0 mi West 10.4 mph 21.9 mph 0.00 in   Overcast
9:53 AM 35.1 °F 26.9 °F 23.0 °F 61% 29.49 in 10.0 mi WNW 11.5 mph 25.3 mph N/A   Mostly Cloudy
10:53 AM 37.0 °F 28.5 °F 19.0 °F 48% 29.48 in 10.0 mi West 13.8 mph 27.6 mph N/A   Mostly Cloudy
11:53 AM 36.0 °F 29.6 °F 21.0 °F 55% 29.49 in 10.0 mi West 8.1 mph 24.2 mph N/A   Mostly Cloudy
12:53 PM 37.0 °F 29.3 °F 17.1 °F 44% 29.49 in 10.0 mi NW 11.5 mph 21.9 mph N/A   Overcast
1:53 PM 37.9 °F 27.1 °F 15.1 °F 39% 29.51 in 10.0 mi NW 23.0 mph 32.2 mph N/A   Overcast
2:53 PM 37.0 °F 28.9 °F 19.0 °F 48% 29.52 in 10.0 mi WNW 12.7 mph 21.9 mph N/A   Overcast
3:53 PM 37.0 °F 28.1 °F 18.0 °F 46% 29.57 in 10.0 mi WNW 15.0 mph 31.1 mph N/A   Overcast
4:53 PM 35.1 °F 27.9 °F 21.0 °F 57% 29.59 in 10.0 mi WNW 9.2 mph - 0.00 in   Overcast
5:53 PM 36.0 °F 27.1 °F 17.1 °F 46% 29.62 in 10.0 mi WNW 13.8 mph 27.6 mph N/A   Overcast
6:53 PM 35.1 °F 25.5 °F 18.0 °F 50% 29.66 in 10.0 mi WNW 15.0 mph 27.6 mph N/A   Overcast
7:53 PM 35.1 °F 25.9 °F 18.0 °F 50% 29.68 in 10.0 mi WNW 13.8 mph 25.3 mph N/A   Overcast
8:53 PM 35.1 °F 26.4 °F 17.1 °F 48% 29.72 in 10.0 mi WNW 12.7 mph 20.7 mph N/A   Overcast
9:53 PM 35.1 °F 27.4 °F 18.0 °F 50% 29.73 in 10.0 mi WNW 10.4 mph 19.6 mph N/A   Mostly Cloudy
10:53 PM 35.1 °F 29.3 °F 17.1 °F 48% 29.74 in 10.0 mi NW 6.9 mph 16.1 mph N/A   Overcast
11:53 PM 35.1 °F 27.4 °F 18.0 °F 50% 29.75 in 10.0 mi WNW 10.4 mph - N/A   Overcast